1494730800.88,61736,13.5,73708.5,-3.29,-43.67,-43.87,0,*53
1494730802.14,61737,13.44,73704.3,-3.29,-43.67,-43.95,0,*51
1494730803.38,61738,13.44,73704.0,-3.29,-43.75,-43.95,0,*5D
1494730804.58,61739,13.44,73706.5,-3.27,-43.95,-44.27,0,*52
1494730805.86,61740,13.5,73704.5,-3.29,-44.13,-44.33,0,*5E
1494730807.12,61741,13.5,73706.3,-3.29,-43.95,-44.33,0,*56
1494730808.35,61742,13.44,73704.8,-3.29,-43.75,-44.27,0,*5E
1494730809.56,61743,13.44,73704.0,-3.27,-43.75,-44.07,0,*53
1494730810.79,61744,13.5,73706.0,-3.29,-43.95,-44.27,0,*56
1494730812.02,61745,13.5,73708.3,-3.27,-43.75,-44.13,0,*50
1494730813.27,61746,13.44,73702.8,-3.29,-43.87,-44.33,0,*52
1494730814.52,61747,13.44,73706.8,-3.29,-44.13,-44.27,0,*5C
1494730815.73,61748,13.44,73706.3,-3.27,-43.95,-44.27,0,*54
1494730817.0,61749,13.44,73706.5,-3.29,-44.13,-44.33,0,*57
1494730818.26,61750,13.44,73702.5,-3.29,-43.75,-44.13,0,*5A
1494730819.49,61751,13.44,73704.0,-3.29,-43.75,-44.07,0,*5E
1494730820.75,61752,13.44,73704.0,-3.29,-43.75,-44.13,0,*58
1494730822.0,61753,13.44,73704.0,-3.29,-44.33,-44.61,0,*59
1494730823.26,61754,13.5,73704.0,-3.27,-44.33,-44.73,0,*53
1494730824.52,61755,13.44,73706.5,-3.33,-44.21,-44.61,0,*57
1494730825.75,61756,13.5,73710.0,-3.33,-44.41,-44.79,0,*5B
1494730827.01,61757,13.44,73706.3,-3.29,-44.33,-44.61,0,*5D
1494730828.26,61758,13.5,73706.5,-3.33,-44.41,-44.67,0,*5A
1494730829.55,61759,13.5,73706.3,-3.33,-44.01,-44.21,0,*5D
1494730830.8,61760,13.44,73706.5,-3.33,-44.01,-44.41,0,*51
1494730832.07,61761,13.44,73702.3,-3.33,-43.95,-44.21,0,*5C
1494730833.3,61762,13.44,73704.8,-3.29,-43.95,-44.27,0,*52
1494730834.55,61763,13.44,73704.3,-3.29,-43.87,-44.13,0,*57
1494730835.78,61764,13.44,73704.0,-3.29,-43.95,-44.27,0,*54
1494730837.03,61765,13.5,73706.0,-3.29,-43.87,-44.13,0,*51
1494730838.29,61766,13.44,73706.3,-3.33,-44.01,-44.41,0,*57
1494730839.55,61767,13.5,73706.3,-3.33,-43.95,-44.33,0,*59
1494730840.82,61768,13.44,73704.5,-3.29,-44.13,-44.33,0,*54
1494730842.08,61769,13.5,73704.3,-3.29,-44.07,-44.33,0,*50
1494730843.36,61770,13.5,73706.8,-3.29,-44.13,-44.33,0,*5D
1494730844.64,61771,13.44,73704.0,-3.33,-44.21,-44.33,0,*56
1494730845.9,61772,13.44,73704.3,-3.33,-43.95,-44.33,0,*5D
1494730847.16,61773,13.44,73704.3,-3.33,-43.95,-44.21,0,*5F
1494730848.45,61774,13.44,73704.0,-3.33,-44.01,-44.21,0,*52
1494730849.72,61775,13.44,73706.3,-3.33,-44.21,-44.61,0,*55
1494730850.97,61776,13.44,73702.8,-3.33,-44.13,-44.41,0,*55
1494730852.23,61777,13.5,73706.8,-3.33,-44.13,-44.41,0,*54
1494730853.46,61778,13.5,73706.3,-3.35,-44.41,-44.67,0,*5E
1494730854.72,61779,13.44,73704.8,-3.33,-44.21,-44.61,0,*59
1494730855.98,61780,13.5,73704.5,-3.35,-43.81,-44.13,0,*51
1494730857.23,61781,13.5,73706.0,-3.33,-44.13,-44.41,0,*5D
1494730858.46,61782,13.5,73704.5,-3.35,-44.13,-44.41,0,*58
1494730859.72,61783,13.44,73706.8,-3.35,-43.81,-44.21,0,*53
1494730860.99,61784,13.5,73706.3,-3.33,-43.95,-44.21,0,*57
1494730862.25,61785,13.44,73704.3,-3.33,-43.75,-44.13,0,*59
1494730863.5,61786,13.44,73704.5,-3.29,-43.95,-44.33,0,*5D
1494730864.76,61787,13.44,73704.0,-3.33,-43.75,-44.01,0,*58
1494730866.02,61788,13.44,73704.8,-3.33,-44.01,-44.41,0,*57
1494730867.31,61789,13.44,73706.5,-3.33,-44.01,-44.33,0,*53
1494730868.56,61790,13.5,73706.8,-3.35,-43.81,-44.13,0,*50
1494730869.84,61791,13.44,73704.0,-3.33,-43.55,-43.81,0,*52
1494730871.13,61792,13.5,73704.5,-3.33,-43.81,-44.13,0,*54
1494730872.37,61793,13.5,73708.3,-3.33,-43.61,-43.95,0,*52
1494730873.61,61794,13.5,73704.0,-3.33,-43.61,-43.95,0,*55
1494730874.85,61795,13.44,73704.3,-3.33,-43.35,-43.75,0,*5B
1494730876.09,61796,13.44,73706.5,-3.33,-43.61,-43.95,0,*57
1494730877.35,61797,13.5,73706.5,-3.33,-44.21,-44.41,0,*5B
1494730878.61,61798,13.44,73706.3,-3.33,-44.13,-44.41,0,*55
1494730879.89,61799,13.5,73708.3,-3.33,-44.01,-44.33,0,*52
1494730881.17,61800,13.5,73708.8,-3.33,-44.13,-44.33,0,*5E
1494730882.46,61801,13.44,73702.5,-3.33,-44.01,-44.33,0,*5C
1494730883.74,61802,13.44,73704.3,-3.33,-44.13,-44.33,0,*5C
1494730885.02,61803,13.5,73706.5,-3.33,-43.81,-44.01,0,*50
1494730886.3,61804,13.44,73700.3,-3.29,-44.13,-44.33,0,*51
1494730887.53,61805,13.5,73704.5,-3.29,-43.95,-44.27,0,*5C
1494730888.79,61806,13.5,73704.8,-3.33,-44.33,-44.61,0,*5D
1494730890.04,61807,13.5,73706.3,-3.33,-44.13,-44.41,0,*5C
1494730891.33,61808,13.44,73702.0,-3.33,-43.81,-44.21,0,*59
1494730892.56,61809,13.44,73702.3,-3.35,-44.13,-44.41,0,*54
1494730893.85,61810,13.5,73704.3,-3.33,-43.81,-44.21,0,*50
1494730895.11,61811,13.5,73706.8,-3.33,-43.95,-44.13,0,*55
1494730896.36,61812,13.5,73706.3,-3.35,-43.81,-44.01,0,*56
1494730897.59,61813,13.44,73700.3,-3.35,-44.13,-44.41,0,*5F
1494730898.83,61814,13.44,73702.3,-3.35,-44.13,-44.41,0,*58
1494730900.11,61815,13.5,73704.5,-3.33,-43.81,-44.13,0,*54
1494730901.35,61816,13.44,73704.3,-3.33,-43.61,-43.95,0,*50
1494730902.63,61817,13.44,73704.8,-3.33,-43.81,-44.13,0,*56
1494730903.89,61818,13.44,73702.3,-3.33,-44.01,-44.41,0,*51
1494730905.1,61819,13.44,73702.3,-3.35,-44.41,-44.61,0,*50
1494730906.38,61820,13.5,73706.5,-3.33,-44.01,-44.33,0,*5F
1494730907.67,61821,13.44,73704.0,-3.33,-43.81,-44.01,0,*50
1494730908.95,61822,13.44,73704.3,-3.33,-44.13,-44.33,0,*5E
1494730910.21,61823,13.44,73704.8,-3.33,-43.61,-44.01,0,*5C
1494730911.5,61824,13.44,73704.0,-3.33,-43.81,-44.21,0,*57
1494730912.74,61825,13.44,73702.8,-3.33,-43.61,-43.95,0,*50
1494730913.98,61826,13.44,73704.5,-3.33,-43.61,-43.95,0,*53
1494730915.24,61827,13.44,73704.3,-3.33,-43.75,-44.01,0,*5D
1494730916.52,61828,13.5,73706.0,-3.33,-43.55,-43.81,0,*5F
1494730917.78,61829,13.44,73706.0,-3.33,-43.95,-44.33,0,*5C
1494730919.04,61830,13.44,73706.0,-3.29,-43.67,-43.95,0,*59
1494730920.29,61831,13.44,73700.8,-3.29,-43.55,-43.87,0,*5A
1494730921.5,61832,13.44,73704.3,-3.27,-43.49,-43.75,0,*57
1494730922.73,61833,13.44,73700.5,-3.27,-43.67,-44.07,0,*58
1494730923.96,61834,13.44,73700.5,-3.29,-43.75,-44.27,0,*50
1494730925.16,61835,13.44,73702.3,-3.27,-43.87,-44.07,0,*50
1494730926.4,61836,13.44,73702.3,-3.29,-43.95,-44.27,0,*5C
1494730927.63,61837,13.44,73702.5,-3.29,-43.95,-44.27,0,*5D
1494730928.86,61838,13.44,73704.3,-3.27,-44.07,-44.33,0,*55
1494730930.09,61839,13.5,73706.3,-3.29,-43.95,-44.27,0,*53
1494730931.32,61840,13.44,73706.0,-3.27,-44.07,-44.33,0,*5A
1494730932.55,61841,13.5,73706.3,-3.27,-43.67,-43.95,0,*51
1494730933.8,61842,13.44,73704.5,-3.29,-43.55,-43.87,0,*5E
1494730935.05,61843,13.44,73702.3,-3.29,-43.55,-43.87,0,*5F
1494730936.26,61844,13.44,73702.8,-3.27,-43.75,-44.07,0,*5B
1494730937.49,61845,13.44,73706.5,-3.27,-43.55,-44.07,0,*58
1494730938.72,61846,13.44,73700.3,-3.27,-43.67,-43.95,0,*56
1494730939.95,61847,13.44,73704.5,-3.27,-44.13,-44.53,0,*5E
1494730941.15,61848,13.44,73700.5,-3.27,-43.75,-44.07,0,*57
1494730942.43,61849,13.44,73706.5,-3.29,-43.67,-44.13,0,*5E
1494730943.66,61850,13.44,73704.0,-3.27,-44.07,-44.33,0,*5B
1494730944.89,61851,13.44,73702.8,-3.29,-44.27,-44.53,0,*50
1494730946.13,61852,13.44,73702.3,-3.29,-44.27,-44.53,0,*53
1494730947.35,61853,13.44,73700.5,-3.27,-44.07,-44.33,0,*58
1494730948.59,61854,13.44,73700.8,-3.29,-44.27,-44.61,0,*54
1494730949.84,61855,13.5,73704.0,-3.29,-44.33,-44.61,0,*50
1494730951.07,61856,13.5,73708.3,-3.29,-44.53,-44.79,0,*5C
1494730952.28,61857,13.44,73700.0,-3.27,-44.53,-44.79,0,*53
1494730953.53,61858,13.5,73704.0,-3.29,-43.95,-44.13,0,*53
1494730954.77,61859,13.44,73700.0,-3.29,-43.75,-43.95,0,*55
1494730956.03,61860,13.5,73704.5,-3.29,-44.07,-44.33,0,*56
1494730957.28,61861,13.5,73704.0,-3.29,-44.33,-44.53,0,*56
1494730958.48,61862,13.5,73704.0,-3.27,-44.07,-44.27,0,*5F
1494730959.72,61863,13.5,73704.3,-3.29,-44.27,-44.61,0,*50
1494730960.98,61864,13.44,73706.3,-3.33,-44.21,-44.61,0,*5A
1494730962.19,61865,13.44,73704.3,-3.27,-44.27,-44.53,0,*59
1494730963.44,61866,13.5,73704.5,-3.29,-44.13,-44.53,0,*53
1494730964.67,61867,13.5,73706.8,-3.29,-43.95,-44.27,0,*58
1494730965.9,61868,13.5,73706.3,-3.29,-44.27,-44.61,0,*5B
1494730967.16,61869,13.5,73704.0,-3.29,-43.67,-43.95,0,*55
1494730968.44,61870,13.44,73702.0,-3.29,-44.13,-44.33,0,*52
1494730969.69,61871,13.44,73704.5,-3.29,-44.13,-44.53,0,*55
1494730970.92,61872,13.44,73706.0,-3.29,-43.95,-44.27,0,*5C
1494730972.2,61873,13.44,73706.5,-3.33,-44.13,-44.33,0,*5A
1494730973.46,61874,13.44,73702.0,-3.33,-44.13,-44.41,0,*58
1494730974.72,61875,13.5,73704.0,-3.33,-43.95,-44.33,0,*55
1494730976.0,61876,13.5,73704.8,-3.33,-44.01,-44.33,0,*5C
1494730977.24,61877,13.5,73706.3,-3.35,-43.95,-44.21,0,*52
1494730978.47,61878,13.44,73704.5,-3.29,-43.87,-44.07,0,*57
1494730979.72,61879,13.5,73704.0,-3.33,-44.13,-44.41,0,*55
1494730981.01,61880,13.5,73706.8,-3.33,-44.13,-44.33,0,*56
1494730982.24,61881,13.44,73704.8,-3.35,-44.13,-44.61,0,*56
1494730983.48,61882,13.44,73704.8,-3.35,-44.21,-44.61,0,*54
1494730984.71,61883,13.44,73704.3,-3.35,-44.13,-44.41,0,*56
1494730985.98,61884,13.44,73706.3,-3.33,-44.47,-44.67,0,*52
1494730987.24,61885,13.44,73706.5,-3.33,-44.01,-44.41,0,*55
1494730988.47,61886,13.44,73704.3,-3.33,-44.41,-44.61,0,*50
1494730989.73,61887,13.44,73704.0,-3.33,-44.33,-44.61,0,*54
1494730991.01,61888,13.44,73706.0,-3.33,-44.13,-44.33,0,*5E
1494730992.26,61889,13.44,73702.0,-3.33,-44.41,-44.67,0,*59
1494730993.49,61890,13.5,73708.0,-3.35,-44.41,-44.67,0,*57
1494730994.72,61891,13.44,73704.8,-3.35,-44.33,-44.61,0,*55
1494730995.99,61892,13.44,73706.8,-3.33,-44.21,-44.61,0,*53
1494730997.24,61893,13.5,73708.3,-3.33,-44.13,-44.41,0,*51
1494730998.52,61894,13.44,73706.8,-3.33,-43.81,-44.33,0,*5F
1494730999.75,61895,13.44,73704.0,-3.35,-44.41,-44.67,0,*52
1494731001.01,61896,13.44,73704.8,-3.35,-44.01,-44.33,0,*54
1494731002.24,61897,13.5,73708.3,-3.35,-44.33,-44.41,0,*51
1494731003.47,61898,13.44,73706.8,-3.33,-44.41,-44.61,0,*5F
1494731004.71,61899,13.5,73704.0,-3.35,-44.21,-44.41,0,*5C
1494731005.97,61900,13.44,73704.8,-3.33,-44.13,-44.41,0,*5A
1494731007.2,61901,13.5,73706.0,-3.35,-44.13,-44.61,0,*5F
1494731008.43,61902,13.5,73706.5,-3.35,-44.33,-44.79,0,*57
1494731009.64,61903,13.5,73708.5,-3.35,-44.41,-44.61,0,*5A
1494731010.92,61904,13.44,73704.0,-3.37,-44.47,-44.73,0,*5A
1494731012.13,61905,13.5,73706.0,-3.35,-44.41,-44.79,0,*55
1494731013.39,61906,13.5,73708.0,-3.33,-44.33,-44.61,0,*5C
1494731014.65,61907,13.44,73704.0,-3.37,-44.53,-44.93,0,*52
1494731015.91,61908,13.5,73708.0,-3.37,-44.07,-44.47,0,*55
1494731017.19,61909,13.5,73706.8,-3.37,-43.67,-44.01,0,*57
1494731018.45,61910,13.44,73706.5,-3.35,-44.01,-44.21,0,*58
1494731019.69,61911,13.44,73706.8,-3.35,-43.95,-44.21,0,*53
1494731020.93,61912,13.44,73706.0,-3.35,-43.95,-44.21,0,*50
1494731022.16,61913,13.5,73704.8,-3.35,-44.13,-44.61,0,*5C
1494731023.4,61914,13.44,73702.3,-3.35,-44.21,-44.61,0,*5A
1494731024.66,61915,13.5,73708.0,-3.35,-44.13,-44.21,0,*5E
1494731025.9,61916,13.5,73710.0,-3.35,-43.95,-44.21,0,*54
1494731027.13,61917,13.44,73706.8,-3.35,-44.13,-44.41,0,*5A
1494731028.39,61918,13.5,73710.0,-3.35,-44.01,-44.33,0,*53
1494731029.66,61919,13.5,73706.5,-3.33,-44.21,-44.41,0,*53
1494731030.89,61920,13.5,73710.0,-3.35,-44.33,-44.61,0,*5E
1494731032.17,61921,13.44,73706.0,-3.33,-43.81,-44.13,0,*52
1494731033.41,61922,13.5,73706.3,-3.37,-43.61,-43.87,0,*51
1494731034.67,61923,13.5,73708.0,-3.37,-43.67,-44.07,0,*59
1494731035.92,61924,13.5,73708.0,-3.37,-43.67,-44.07,0,*5E
1494731037.18,61925,13.5,73704.5,-3.37,-43.61,-43.81,0,*50
1494731038.45,61926,13.44,73706.8,-3.35,-43.81,-44.21,0,*52
1494731039.68,61927,13.5,73708.3,-3.35,-44.13,-44.41,0,*59
1494731040.88,61928,13.44,73704.0,-3.35,-44.41,-44.79,0,*5A
1494731042.1,61929,13.5,73706.5,-3.35,-44.61,-44.87,0,*58
1494731043.34,61930,13.44,73706.3,-3.35,-44.21,-44.41,0,*5E
1494731044.55,61931,13.5,73706.3,-3.35,-43.75,-43.95,0,*57
1494731045.79,61932,13.5,73706.8,-3.35,-43.61,-44.01,0,*5B
1494731047.03,61933,13.5,73706.0,-3.35,-44.13,-44.41,0,*5C
1494731048.25,61934,13.5,73706.8,-3.35,-44.41,-44.67,0,*58
1494731049.48,61935,13.5,73704.5,-3.35,-44.13,-44.41,0,*5A
1494731050.69,61936,13.5,73706.0,-3.35,-44.41,-44.79,0,*55
1494731051.93,61937,13.5,73708.0,-3.35,-44.01,-44.41,0,*5B
1494731053.16,61938,13.44,73704.0,-3.35,-44.47,-44.79,0,*5D
1494731054.39,61939,13.44,73704.8,-3.35,-44.41,-44.67,0,*55
1494731055.63,61940,13.44,73706.0,-3.35,-44.21,-44.61,0,*5B
1494731056.83,61941,13.44,73706.3,-3.35,-44.41,-44.61,0,*5C
1494731058.12,61942,13.44,73704.3,-3.37,-44.47,-44.73,0,*58
1494731059.4,61943,13.5,73710.8,-3.37,-44.47,-44.67,0,*5C
1494731060.68,61944,13.44,73706.5,-3.37,-44.21,-44.47,0,*59
1494731061.96,61945,13.44,73706.5,-3.37,-44.21,-44.47,0,*58
1494731063.22,61946,13.5,73708.0,-3.37,-44.27,-44.47,0,*5D
1494731064.48,61947,13.5,73708.8,-3.37,-44.53,-44.73,0,*58
1494731065.71,61948,13.44,73706.5,-3.39,-44.27,-44.67,0,*5F
1494731066.97,61949,13.5,73706.5,-3.39,-44.47,-44.73,0,*5D
1494731068.21,61950,13.5,73708.0,-3.39,-44.47,-44.67,0,*50
1494731069.47,61951,13.5,73708.3,-3.37,-44.27,-44.47,0,*5B
1494731070.7,61952,13.5,73708.8,-3.39,-44.41,-44.73,0,*51
1494731071.95,61953,13.5,73708.0,-3.39,-44.47,-44.67,0,*53
1494731073.18,61954,13.5,73708.5,-3.39,-44.53,-44.73,0,*54
1494731074.41,61955,13.44,73704.8,-3.39,-44.01,-44.27,0,*53
1494731075.66,61956,13.44,73704.3,-3.39,-43.67,-44.01,0,*53
1494731076.92,61957,13.5,73708.8,-3.39,-43.81,-44.21,0,*58
1494731078.18,61958,13.5,73706.5,-3.37,-43.87,-44.21,0,*5F
1494731079.43,61959,13.5,73706.5,-3.39,-44.21,-44.47,0,*5B
1494731080.66,61960,13.5,73706.8,-3.39,-44.27,-44.67,0,*55
1494731081.88,61961,13.5,73708.3,-3.39,-44.41,-44.67,0,*54
1494731083.11,61962,13.44,73704.8,-3.39,-44.47,-44.87,0,*5F
1494731084.37,61963,13.5,73710.0,-3.39,-44.47,-44.73,0,*55
1494731085.6,61964,13.44,73704.0,-3.39,-44.01,-44.27,0,*51
1494731086.85,61965,13.5,73710.3,-3.39,-43.67,-44.01,0,*53
1494731088.05,61966,13.44,73704.0,-3.39,-43.87,-44.27,0,*5A
1494731089.29,61967,13.5,73710.3,-3.37,-44.07,-44.41,0,*5A
1494731090.52,61968,13.5,73710.5,-3.39,-44.01,-44.27,0,*5D
1494731091.75,61969,13.5,73710.0,-3.39,-44.27,-44.67,0,*5C
1494731093.01,61970,13.5,73710.5,-3.37,-44.21,-44.27,0,*58
1494731094.24,61971,13.44,73706.3,-3.39,-43.61,-44.01,0,*50
1494731095.48,61972,13.5,73708.5,-3.39,-43.61,-44.01,0,*53
1494731096.68,61973,13.5,73712.3,-3.39,-43.87,-44.07,0,*5C
1494731097.91,61974,13.5,73708.3,-3.39,-44.01,-44.41,0,*50
1494731099.14,61975,13.5,73706.3,-3.39,-44.27,-44.67,0,*51
1494731100.37,61976,13.5,73706.5,-3.39,-44.27,-44.67,0,*52
1494731101.6,61977,13.44,73706.8,-3.39,-44.47,-44.87,0,*5B
1494731102.86,61978,13.5,73708.5,-3.43,-44.53,-44.93,0,*59
1494731104.11,61979,13.5,73708.8,-3.43,-44.33,-44.53,0,*52
1494731105.36,61980,13.44,73706.8,-3.43,-44.07,-44.33,0,*55
1494731106.59,61981,13.44,73704.3,-3.39,-43.61,-44.01,0,*5F
1494731107.85,61982,13.44,73704.0,-3.39,-43.67,-44.01,0,*5A
1494731109.05,61983,13.44,73704.0,-3.39,-43.49,-43.87,0,*5E
1494731110.3,61984,13.44,73706.5,-3.39,-43.67,-44.01,0,*5C
1494731111.56,61985,13.5,73708.0,-3.39,-43.67,-44.01,0,*5D
1494731112.76,61986,13.5,73710.0,-3.39,-44.07,-44.41,0,*5B
1494731114.02,61987,13.5,73706.0,-3.37,-44.27,-44.47,0,*50
1494731115.25,61988,13.44,73704.8,-3.39,-44.41,-44.73,0,*56
1494731116.5,61989,13.5,73708.0,-3.37,-44.41,-44.67,0,*5C
1494731117.72,61990,13.44,73704.3,-3.39,-44.41,-44.67,0,*5A
1494731118.95,61991,13.44,73706.3,-3.39,-44.27,-44.47,0,*59
1494731120.17,61992,13.44,73704.0,-3.39,-44.07,-44.47,0,*58
1494731121.37,61993,13.5,73710.0,-3.39,-43.87,-44.27,0,*50
1494731122.6,61994,13.44,73704.8,-3.39,-44.01,-44.27,0,*5E
1494731123.81,61995,13.5,73708.8,-3.39,-44.07,-44.41,0,*59
1494731125.06,61996,13.5,73708.5,-3.39,-44.21,-44.47,0,*58
1494731126.31,61997,13.5,73710.3,-3.39,-44.21,-44.67,0,*5B
1494731127.55,61998,13.44,73704.5,-3.39,-44.21,-44.41,0,*50
1494731128.82,61999,13.5,73708.5,-3.37,-44.47,-44.67,0,*5B
1494731130.04,62000,13.5,73708.8,-3.39,-44.41,-44.67,0,*59
1494731131.29,62001,13.5,73710.0,-3.43,-44.33,-44.53,0,*57
1494731132.52,62002,13.5,73704.3,-3.43,-44.27,-44.53,0,*51
1494731133.72,62003,13.5,73704.5,-3.39,-43.87,-44.41,0,*53
1494731135.0,62004,13.5,73710.5,-3.43,-44.33,-44.73,0,*50
1494731136.28,62005,13.5,73704.5,-3.43,-44.47,-44.73,0,*52
1494731137.53,62006,13.5,73706.5,-3.43,-44.13,-44.53,0,*52
1494731138.78,62007,13.5,73706.5,-3.43,-44.13,-44.53,0,*53
1494731139.98,62008,13.5,73710.3,-3.45,-44.41,-44.79,0,*55
1494731141.26,62009,13.44,73704.3,-3.43,-44.47,-44.73,0,*5E
1494731142.46,62010,13.5,73704.5,-3.45,-44.53,-44.87,0,*5E
1494731143.74,62011,13.5,73710.3,-3.43,-44.33,-44.73,0,*54
1494731144.94,62012,13.5,73708.0,-3.45,-44.41,-44.79,0,*5E
1494731146.22,62013,13.5,73706.3,-3.43,-44.33,-44.73,0,*56
1494731147.42,62014,13.44,73706.8,-3.45,-44.41,-44.79,0,*58
1494731148.68,62015,13.44,73704.8,-3.43,-44.27,-44.73,0,*55
1494731149.91,62016,13.5,73706.8,-3.45,-44.21,-44.53,0,*54
1494731151.14,62017,13.44,73706.3,-3.45,-44.33,-44.79,0,*5E
1494731152.36,62018,13.44,73704.5,-3.45,-44.33,-44.61,0,*58
1494731153.58,62019,13.5,73704.5,-3.45,-44.13,-44.41,0,*59
1494731154.81,62020,13.5,73708.8,-3.45,-44.13,-44.41,0,*53
1494731156.03,62021,13.5,73708.8,-3.45,-44.13,-44.41,0,*52
1494731157.26,62022,13.5,73710.8,-3.45,-44.33,-44.61,0,*51
1494731158.49,62023,13.5,73710.5,-3.45,-44.21,-44.79,0,*5A
1494731159.72,62024,13.44,73704.0,-3.45,-44.21,-44.61,0,*54
1494731160.92,62025,13.44,73706.8,-3.45,-44.53,-44.79,0,*59
1494731162.12,62026,13.44,73704.3,-3.45,-44.41,-44.61,0,*50
1494731163.35,62027,13.5,73710.0,-3.45,-44.21,-44.41,0,*55
1494731164.61,62028,13.5,73708.0,-3.45,-44.01,-44.33,0,*5D
1494731165.86,62029,13.5,73706.8,-3.43,-43.87,-44.21,0,*50
1494731167.11,62030,13.5,73706.8,-3.45,-44.13,-44.33,0,*57
1494731168.36,62031,13.5,73708.0,-3.45,-43.81,-44.21,0,*59
1494731169.57,62032,13.5,73710.0,-3.45,-43.61,-43.95,0,*5C
1494731170.82,62033,13.5,73706.0,-3.43,-43.55,-43.87,0,*5F
1494731172.05,62034,13.44,73706.8,-3.43,-43.95,-44.27,0,*59
1494731173.28,62035,13.44,73706.5,-3.45,-44.01,-44.41,0,*54
1494731174.5,62036,13.44,73704.8,-3.45,-44.13,-44.53,0,*57
1494731175.76,62037,13.44,73704.3,-3.45,-44.01,-44.21,0,*50
1494731177.01,62038,13.5,73708.3,-3.43,-43.95,-44.13,0,*52
1494731178.24,62039,13.44,73704.3,-3.45,-43.75,-44.01,0,*58
1494731179.47,62040,13.5,73708.0,-3.43,-43.87,-44.27,0,*59
1494731180.71,62041,13.44,73704.3,-3.43,-44.07,-44.47,0,*51
1494731181.94,62042,13.44,73704.3,-3.45,-44.13,-44.61,0,*55
1494731183.16,62043,13.5,73706.5,-3.45,-44.13,-44.41,0,*56
1494731184.39,62044,13.44,73704.3,-3.45,-44.13,-44.41,0,*51
1494731185.64,62045,13.5,73708.0,-3.43,-43.75,-44.13,0,*56
1494731186.89,62046,13.44,73706.5,-3.45,-44.01,-44.33,0,*55
1494731188.15,62047,13.44,73706.5,-3.45,-44.01,-44.33,0,*54
1494731189.37,62048,13.5,73708.0,-3.45,-44.13,-44.61,0,*5F
1494731190.62,62049,13.5,73706.3,-3.43,-43.95,-44.33,0,*56
1494731191.85,62050,13.5,73708.5,-3.45,-44.01,-44.41,0,*57
1494731193.08,62051,13.5,73708.0,-3.45,-43.95,-44.21,0,*5A
1494731194.31,62052,13.44,73704.3,-3.43,-43.35,-43.75,0,*53
1494731195.56,62053,13.44,73706.5,-3.43,-43.67,-44.07,0,*57
1494731196.79,62054,13.5,73706.5,-3.45,-44.13,-44.61,0,*52
1494731198.01,62055,13.5,73708.0,-3.45,-44.33,-44.61,0,*51
1494731199.24,62056,13.44,73704.8,-3.45,-44.21,-44.61,0,*51
1494731200.5,62057,13.5,73706.8,-3.43,-43.95,-44.33,0,*59
1494731201.75,62058,13.5,73704.3,-3.45,-43.81,-44.13,0,*57
1494731202.99,62059,13.44,73706.5,-3.43,-43.87,-44.33,0,*54
1494731204.22,62060,13.5,73706.5,-3.45,-44.01,-44.53,0,*57
1494731205.44,62061,13.5,73706.3,-3.45,-44.33,-44.61,0,*56
1494731206.69,62062,13.5,73710.3,-3.43,-44.13,-44.53,0,*50
1494731207.92,62063,13.5,73708.3,-3.45,-44.01,-44.53,0,*54
1494731209.15,62064,13.5,73706.0,-3.45,-44.21,-44.61,0,*50
1494731210.38,62065,13.5,73708.3,-3.43,-43.75,-44.07,0,*51
1494731211.63,62066,13.5,73708.0,-3.43,-43.67,-44.07,0,*51
1494731212.88,62067,13.5,73708.3,-3.43,-44.07,-44.47,0,*55
1494731214.11,62068,13.5,73704.5,-3.43,-43.95,-44.27,0,*50
1494731215.37,62069,13.44,73706.8,-3.43,-43.67,-43.95,0,*52
1494731216.63,62070,13.5,73708.3,-3.43,-43.49,-43.67,0,*5B
1494731217.88,62071,13.44,73704.3,-3.43,-43.67,-43.87,0,*58
1494731219.13,62072,13.44,73706.8,-3.39,-44.01,-44.47,0,*5A
1494731220.36,62073,13.5,73708.3,-3.39,-43.67,-44.07,0,*58
1494731221.59,62074,13.5,73706.5,-3.43,-43.75,-44.07,0,*51
1494731222.82,62075,13.5,73710.3,-3.43,-43.87,-44.27,0,*5F
1494731224.07,62076,13.5,73710.5,-3.43,-44.07,-44.47,0,*55
1494731225.3,62077,13.5,73708.3,-3.43,-44.27,-44.53,0,*53
1494731226.53,62078,13.5,73708.3,-3.45,-44.27,-44.73,0,*58
1494731227.8,62079,13.5,73708.8,-3.43,-44.13,-44.47,0,*5F
1494731229.06,62080,13.44,73704.3,-3.43,-44.07,-44.33,0,*5F
1494731230.28,62081,13.5,73704.5,-3.43,-43.87,-44.27,0,*54
1494731231.51,62082,13.44,73704.3,-3.43,-43.75,-44.07,0,*58
1494731232.74,62083,13.5,73708.3,-3.43,-44.07,-44.53,0,*5A
1494731233.99,62084,13.5,73706.8,-3.45,-43.81,-44.13,0,*56
1494731235.22,62085,13.5,73710.0,-3.45,-43.75,-44.13,0,*5C
1494731236.47,62086,13.44,73706.0,-3.43,-43.67,-44.07,0,*5F
1494731237.73,62087,13.44,73706.5,-3.43,-43.67,-43.75,0,*5C
1494731238.98,62088,13.5,73708.3,-3.43,-43.75,-44.13,0,*57
1494731240.23,62089,13.5,73708.5,-3.43,-43.87,-44.13,0,*5B
1494731241.48,62090,13.5,73710.0,-3.43,-43.87,-44.13,0,*53
1494731242.74,62091,13.5,73706.5,-3.43,-43.67,-43.95,0,*55
1494731243.97,62092,13.5,73708.0,-3.39,-43.81,-44.27,0,*5D
1494731245.22,62093,13.5,73710.0,-3.43,-43.95,-44.33,0,*51
1494731246.45,62094,13.44,73706.8,-3.39,-43.81,-44.07,0,*59
1494731247.68,62095,13.44,73706.8,-3.43,-43.75,-43.95,0,*52
1494731248.93,62096,13.44,73706.0,-3.39,-43.81,-44.01,0,*5D
1494731250.16,62097,13.5,73710.5,-3.39,-43.87,-44.21,0,*58
1494731251.39,62098,13.5,73710.3,-3.39,-43.81,-44.07,0,*55
1494731252.62,62099,13.5,73706.5,-3.39,-43.87,-44.21,0,*56
1494731253.87,62100,13.5,73708.0,-3.43,-44.27,-44.47,0,*57
1494731255.1,62101,13.44,73706.8,-3.43,-44.07,-44.27,0,*52
1494731256.33,62102,13.5,73710.5,-3.45,-44.13,-44.61,0,*50
1494731257.59,62103,13.44,73704.0,-3.43,-44.27,-44.73,0,*53
1494731258.82,62104,13.5,73706.3,-3.39,-43.87,-44.21,0,*53
1494731260.04,62105,13.5,73708.0,-3.39,-43.81,-44.07,0,*50
1494731261.27,62106,13.44,73706.5,-3.43,-44.07,-44.53,0,*56
1494731262.5,62107,13.5,73710.0,-3.43,-44.07,-44.53,0,*57
1494731263.74,62108,13.44,73704.8,-3.43,-43.87,-44.33,0,*51
1494731265.0,62109,13.5,73706.3,-3.43,-43.95,-44.13,0,*51
1494731266.22,62110,13.5,73710.3,-3.45,-43.95,-44.13,0,*5F
1494731267.43,62111,13.5,73706.3,-3.39,-43.75,-44.07,0,*5E
1494731268.66,62112,13.5,73706.0,-3.39,-43.61,-43.81,0,*51
1494731269.86,62113,13.5,73704.0,-3.39,-43.87,-44.27,0,*53
1494731271.11,62114,13.5,73708.5,-3.43,-44.13,-44.53,0,*50
1494731272.31,62115,13.44,73704.3,-3.39,-43.87,-44.27,0,*55
1494731273.51,62116,13.44,73706.0,-3.39,-43.87,-44.07,0,*54
1494731274.74,62117,13.5,73708.0,-3.39,-43.61,-44.01,0,*5B
1494731276.0,62118,13.5,73710.3,-3.37,-43.29,-43.87,0,*5F
1494731277.23,62119,13.5,73708.0,-3.39,-43.87,-44.21,0,*5F
1494731278.43,62120,13.5,73708.3,-3.39,-43.61,-43.87,0,*56
1494731279.72,62121,13.5,73708.5,-3.37,-44.01,-44.21,0,*53
1494731280.95,62122,13.44,73704.8,-3.39,-43.87,-44.21,0,*57
1494731282.16,62123,13.5,73708.8,-3.39,-43.61,-43.87,0,*55
1494731283.42,62124,13.5,73710.8,-3.37,-44.01,-44.27,0,*50
1494731284.65,62125,13.44,73704.3,-3.39,-44.01,-44.27,0,*5F
1494731285.9,62126,13.5,73710.3,-3.39,-43.81,-44.21,0,*55
1494731287.16,62127,13.5,73708.0,-3.39,-43.67,-44.01,0,*5E
1494731288.44,62128,13.5,73710.0,-3.37,-43.67,-44.01,0,*5F
1494731289.67,62129,13.5,73710.8,-3.39,-43.87,-44.21,0,*5C
1494731290.92,62130,13.5,73708.0,-3.39,-43.81,-44.21,0,*52
1494731292.15,62131,13.5,73710.5,-3.37,-43.87,-44.27,0,*5D
1494731293.36,62132,13.5,73708.5,-3.39,-43.61,-43.87,0,*55
1494731294.57,62133,13.5,73706.5,-3.39,-43.61,-43.87,0,*54
1494731295.77,62134,13.5,73708.5,-3.39,-43.87,-44.07,0,*54
1494731297.05,62135,13.5,73708.8,-3.37,-44.21,-44.47,0,*54
1494731298.28,62136,13.5,73708.3,-3.37,-44.07,-44.41,0,*55
1494731299.51,62137,13.5,73708.5,-3.37,-43.87,-44.27,0,*5B
1494731300.8,62138,13.5,73706.0,-3.37,-43.81,-44.21,0,*54
1494731302.0,62139,13.5,73710.3,-3.39,-43.87,-44.27,0,*5B